Find Starlink 1012

NORAD ID: 44718 Int'l Des: 2019-074 Owner: SPXS Country: US Constellation: starlink operational
LEOCIRCULAR

当前视图

正在加载3D地球...

About Starlink 1012

Starlink 1012 (NORAD 44718) is a starlink constellation satellite (v1.0) launched Nov 11, 2019 by SPXS of US. It operates in LEO, CIRCULAR orbit with a mass of 260.00 kg.

关于 Starlink 1012

正在加载描述...

即将过境

Passes for default location (London). Set your location on the main map for personalized predictions.

高度历史

Loading altitude history...

两行轨道根数

1 44718U 19074F 26166.30889331 .00060211 00000-0 10482-2 0 9998
2 44718 53.1561 77.9956 0002334 130.9825 229.1386 15.50216379363912
Epoch: Jun 15, 2026 • Age: 7 hours

当前状态

高度 414.9 km
速度 7.67 km/s
星下点 17.39°N, 125.03°E
发射日期 Nov 11, 2019
运行时间 6.5 years
类型 internet

技术详情

分类 Payload
质量 260.00 kg
干质量 248.00 kg
总质量 260.00 kg
长度 0.20 m
直径 2.80 m
跨度 9.00 m
形状 Box + pan
制造商 SPXS
平台类型 Starlink
阶段状态 In Orbit
所有者/国家 SPXS/US

Most Searched